Location: Kerb�bon
(47.7970°N, 3.3487°W)
Time: 12:44:17
(UTC+00:00)

SPOT 5 - Pass Details

Date: 12 May 2021
Orbit: 623 x 815 km, 98.2° (Epoch: 18 June)

Event Time Altitude Azimuth Distance (km) Brightness Sun altitude
Exits shadow 22:26:48 24° 206° (SSW) 1,559 4.2 -19.9°
Maximum altitude 22:29:28 43° 263° (W) 1,103 3.9 -20.1°
Drops below altitude 10° 22:34:30 10° 334° (NNW) 2,395 6.8 -20.5°
Sets 22:37:01 0° 341° (NNW) 3,343 7.9 -20.6°
